Location: ?????????
(44.2517°N, 135.2292°E)
Time: 03:14:32
(UTC+00:00)

COSMOS 2428 - Pass Details

Date: 19 May 2025
Orbit: 845 x 853 km, 70.9° (Epoch: 14 June)

Event Time Altitude Azimuth Distance (km) Brightness Sun altitude
Rises 16:10:59 0° 335° (NNW) 3,432 6.5 -23.5°
Reaches altitude 10° 16:13:28 10° 338° (NNW) 2,492 5.8 -23.4°
Maximum altitude 16:19:11 73° 63° (ENE) 895 2.8 -23.0°
Enters shadow 16:22:15 29° 143° (SE) 1,531 3.8 -22.8°
